Retour au catalogue

GALILEO 33 (138)

ActifNavigationMEO
NORAD 67160·PAYLOAD·🇪🇺 EU

Lancé Dec 17, 2025 depuis Guiana Space Centre

Loading…

Prochains Passages (prochaines 24 heures)

TLE

FraisSource: CelesTrak SupGP

Époque: Sep 14, 2026, 23:59 UTC

1 67160C 25302A   26257.99979167  .00000000  00000+0  00000+0 0  2576
2 67160  54.3932  99.5706 0002984 142.5841  54.1690  1.70474504    10

Suivez GALILEO 33 (138) en temps réel avec AllMySat

Download on the App Store